sat.trackr.live / text

‹ back to catalog

STARLINK-5489

NORAD 56136 · 2023-046AW

PAYLOAD ACTIVE UNKNOWN

§ Identity

Operator
Country
US
Launch date
2023-03-29
Launch site
AFETR
Launch vehicle
Mass (kg)
RCS (m²)

Purposes: comms

External: N2YO · Heavens-Above · Gunter

§ Orbital elements

Epoch: 2026-05-25T04:47:40.333632Z

Period
94.27 min
Inclination
43.0052°
Eccentricity
0.0001393
Mean motion
15.27575492 rev/d
Perigee alt
482.1 km
Apogee alt
484.0 km
Semi-major
6,861.2 km
B*
3.0332e-5
RAAN
74.7022°
Arg perigee
254.1032°
Mean anomaly
105.9666°
Rev number
17,390

§ Raw data

STARLINK-54891 56136U 23046AW  26145.19977238  .00000572  00000+0  30332-4 0  99982 56136  43.0052  74.7022 0001393 254.1032 105.9666 15.27575492173902

JSON: /api/v1/satellites/56136 · /tle

For live sub-satellite position, see the globe view (requires WebGL).

§ Visibility from observer

Set your observer location to see the next 7 days of passes ≥ 10°. The values pass through the URL so the page stays shareable.

No JS? Fill the form by hand. The geolocation button needs JavaScript.